[[{"header":{"parameterUnit":"m.s-1","parameterCategory":1,"la1":30.2991,"la2":30.254,"lo1":-89.0895,"lo2":-89.0444,"dy":0.0017,"dx":0.0017,"nx":28,"ny":28,"refTime":"2024-07-20T03:00:00:Z","depth":0,"parameterNumber":2,"parameterNumberName":"U-component_of_WINDS"},"data":[0,0,0,0,0,0,0,0,0,0,0,0,0,0,0,0,0,0,0,0,0,0,0,0,0,0,0,0,0,0,0,0,0,0,0,0,0,0,0,0,0,0,0,0,0,0,0,0,0,0,0,0,0,0,0,0,0,0,3.1866,3.1868,0,3.1991,3.1992,3.1994,3.1996,3.1994,3.1993,3.1991,3.2114,3.2119,3.2124,0,0,0,0,0,0,0,0,0,0,0,0,0,3.1624,3.1628,3.1866,3.1868,3.1869,3.1991,3.1992,3.1994,3.1996,3.1994,3.1992,3.1991,3.2113,3.2118,3.2124,0,0,0,0,0,0,0,0,0,0,0,0,0,3.1737,3.163,3.1866,3.1885,3.1888,3.199,3.1992,3.1995,3.1996,3.1994,3.1992,3.199,3.2111,3.2118,3.2125,3.2215,0,0,3.2147,3.215,0,0,0,0,0,0,0,0,3.173,3.1746,3.1881,3.1884,3.1888,3.1976,3.1952,3.2068,3.1997,3.1955,3.1991,3.1988,3.207,3.208,3.2108,3.2221,3.2226,3.2147,3.2152,3.2155,3.2157,0,0,0,0,0,0,0,3.1723,3.174,3.1915,3.1883,3.1887,3.1885,3.1899,3.1974,3.2024,3.1959,3.1959,3.1974,3.2071,3.2102,3.2111,3.2228,3.2147,3.2153,3.2158,3.216,3.2417,3.2419,0,0,0,0,0,0,3.1712,3.1734,3.1912,3.1919,3.1802,3.1892,3.1907,3.195,3.2023,3.2032,3.1976,3.1974,3.2091,3.2103,3.2116,3.2223,3.2155,3.2161,3.2165,3.2414,3.2417,3.242,0,0,0,0,0,0,3.1707,3.1728,3.1906,3.1827,3.1849,3.1898,3.1946,3.1953,3.1984,3.2036,3.2045,3.1998,3.2089,3.2106,3.219,3.2227,3.2164,3.2171,3.2411,3.2415,3.2419,3.244,0,0,0,0,0,0,3.17,3.1726,3.1762,3.1828,3.1854,3.198,3.1949,3.1957,3.1996,3.1995,3.2059,3.2068,3.2089,3.2179,3.2197,3.2236,3.2176,3.2408,3.2413,3.2417,3.2436,3.2444,3.2451,0,0,0,0,0,3.1691,3.1763,3.1764,3.1785,3.19,3.1983,3.1997,3.2021,3.2,3.2035,3.2068,3.2066,3.2221,3.2188,3.2208,3.2249,3.2405,3.2411,3.2417,3.2433,3.2442,3.2451,0,0,0,0,0,0,3.1699,3.1772,3.1774,3.187,3.192,3.1983,3.2028,3.2031,3.2088,3.2083,3.211,3.2124,3.2207,3.2237,3.2199,3.2339,3.231,3.232,3.2316,3.2325,3.2333,3.2322,3.2182,0,0,0,0,0,3.1713,3.1775,3.1835,3.1913,3.1939,3.1979,3.2016,3.203,3.2082,3.2103,3.2143,3.2193,3.2252,3.2291,3.2349,3.2441,3.2453,3.248,3.2487,3.2493,3.25,3.2547,3.2559,3.2439,3.2439,3.2439,0,0,3.174,3.1787,3.1825,3.1916,3.1957,3.2018,3.1997,3.2064,3.2109,3.2113,3.2194,3.2225,3.2282,3.2369,3.241,3.2397,3.2536,3.25,3.2505,3.2509,3.2554,3.2566,3.2576,3.2443,3.2442,3.2441,0,0,3.1821,3.1865,3.1933,3.1974,3.2036,3.2063,3.2079,3.2142,3.2162,3.2245,3.2248,3.2301,3.2405,3.2444,3.2478,3.2572,3.257,3.259,3.2627,3.2673,3.2682,3.2691,3.2721,3.2731,3.2598,3.2598,3.2598,0,3.1846,3.1941,3.1968,3.2034,3.2072,3.2081,3.2148,3.2186,3.2264,3.2289,3.2274,3.2402,3.2441,3.2536,3.2559,3.2587,3.2604,3.2581,3.2679,3.2688,3.2696,3.2725,3.2736,3.26,3.2599,3.2599,3.2599,0,3.1967,3.2033,3.208,3.2155,3.2199,3.2266,3.23,3.2342,3.2352,3.2379,3.246,3.2508,3.2574,3.2598,3.2609,3.2694,3.2684,3.2674,3.2645,3.2709,3.2736,3.2748,3.2602,3.2601,3.2601,3.26,0,0,3.2055,3.2144,3.2161,3.2193,3.2262,3.2312,3.2378,3.2444,3.2476,3.253,3.2583,3.267,3.266,3.2698,3.2713,3.2754,3.2821,3.2739,3.274,3.2749,3.2913,3.2917,3.293,3.2821,3.2824,3.2825,3.2907,0,3.214,3.2259,3.2284,3.2386,3.2444,3.2452,3.2509,3.2556,3.2583,3.2635,3.2664,3.2724,3.2709,3.2731,3.2772,3.2804,3.2853,3.2799,3.2868,3.287,3.285,3.2945,3.295,3.3025,3.2918,3.292,3.2921,0,3.2256,3.2311,3.2419,3.2477,3.2503,3.2554,3.2614,3.2665,3.2717,3.2734,3.2775,3.2786,3.2852,3.2822,3.2912,3.2874,3.2904,3.2924,3.2927,3.2932,3.2897,3.2948,3.3049,3.3059,3.2939,3.2938,3.2936,0,3.2304,3.2407,3.2483,3.2511,3.2583,3.2617,3.2648,3.2698,3.2735,3.2788,3.2812,3.2872,3.2903,3.2948,3.2973,3.295,3.3059,3.3033,3.3072,3.3071,3.3092,3.309,3.3196,3.3117,3.3117,3.3117,3.3117,0,3.2395,3.2459,3.2505,3.2552,3.2623,3.2651,3.272,3.2751,3.2795,3.2846,3.2857,3.2904,3.2936,3.2987,3.3007,3.3076,3.3091,3.3104,3.3108,3.3101,3.3099,3.3119,3.3113,3.312,3.3119,3.3119,3.3118,0,3.246,3.2494,3.2578,3.2638,3.2655,3.2704,3.2754,3.2799,3.2826,3.289,3.2906,3.2948,3.3008,3.3039,3.3114,3.3127,3.3203,3.3206,3.3186,3.3187,3.3223,3.3217,3.3342,3.3358,3.3272,3.3273,3.3274,0,3.2514,3.2563,3.2629,3.2664,3.2696,3.2753,3.2791,3.282,3.2858,3.292,3.2956,3.3017,3.3067,3.3162,3.3198,3.3255,3.3257,3.3296,3.3265,3.3255,3.3253,3.3248,3.3251,3.3301,3.3302,3.3302,3.3303,0,3.2604,3.2618,3.2673,3.2733,3.2778,3.2827,3.2874,3.2902,3.2938,3.298,3.3042,3.3081,3.3158,3.3217,3.3276,3.3305,3.3309,3.3313,3.3324,3.3316,3.3301,3.3306,3.3197,3.3309,3.3309,3.3308,3.3308,3.3308,3.2663,3.2706,3.2758,3.2818,3.2857,3.2901,3.2945,3.2977,3.303,3.3095,3.3108,3.3173,3.3221,3.3301,3.3333,3.3382,3.3373,3.3391,3.3394,3.3397,3.3397,3.3296,3.3393,3.3393,3.3393,3.3393,3.3393,0,3.275,3.2785,3.284,3.2906,3.2952,3.2954,3.3006,3.3044,3.3101,3.3147,3.3196,3.3265,3.3322,3.3363,3.342,3.3452,3.3454,3.3465,3.3461,3.3467,3.3404,3.3386,3.3462,3.3462,3.3462,3.3462,3.3462,3.3462,3.2801,3.2874,3.2894,3.2984,3.3017,3.3081,3.3111,3.315,3.3186,3.3264,3.3311,3.3338,3.338,3.3441,3.3492,3.3502,3.3521,3.3532,3.3541,3.348,3.3472,3.3465,3.3449,3.3536,3.3536,3.36,3.3601,3.3601]},{"header":{"parameterUnit":"m.s-1","parameterCategory":1,"la1":30.2991,"la2":30.254,"lo1":-89.0895,"lo2":-89.0444,"dy":0.0017,"dx":0.0017,"nx":28,"ny":28,"refTime":"2024-07-20T03:00:00:Z","depth":0,"parameterNumber":3,"parameterNumberName":"V-component_of_WINDS"},"data":[0,0,0,0,0,0,0,0,0,0,0,0,0,0,0,0,0,0,0,0,0,0,0,0,0,0,0,0,0,0,0,0,0,0,0,0,0,0,0,0,0,0,0,0,0,0,0,0,0,0,0,0,0,0,0,0,0,0,2.1251,2.1252,0,2.1397,2.1398,2.14,2.1455,2.1455,2.1455,2.1454,2.1599,2.1604,2.1608,0,0,0,0,0,0,0,0,0,0,0,0,0,2.1015,2.1019,2.125,2.1252,2.1254,2.1396,2.1398,2.14,2.1455,2.1455,2.1454,2.1454,2.1598,2.1603,2.1608,0,0,0,0,0,0,0,0,0,0,0,0,0,2.1135,2.102,2.125,2.1299,2.1305,2.1396,2.1398,2.1401,2.1456,2.1455,2.1454,2.1454,2.1596,2.1603,2.1609,2.1661,0,0,2.1628,2.1631,0,0,0,0,0,0,0,0,2.1128,2.1143,2.129,2.1296,2.1302,2.1407,2.1369,2.1488,2.1456,2.1398,2.1454,2.1453,2.1536,2.1547,2.1576,2.1668,2.1674,2.1629,2.1633,2.1636,2.1637,0,0,0,0,0,0,0,2.1119,2.1137,2.1308,2.1292,2.13,2.1312,2.1328,2.1391,2.1468,2.1403,2.1408,2.1424,2.1539,2.1569,2.1579,2.1676,2.1629,2.1634,2.1638,2.1641,2.1817,2.1818,0,0,0,0,0,0,2.1104,2.113,2.1303,2.1312,2.1212,2.1317,2.1335,2.1374,2.1468,2.1482,2.1425,2.1426,2.1559,2.1572,2.1585,2.1651,2.1636,2.1642,2.1645,2.1816,2.1817,2.1818,0,0,0,0,0,0,2.1098,2.1119,2.1298,2.1223,2.1246,2.1322,2.1365,2.1377,2.1408,2.1484,2.1498,2.1442,2.1559,2.1576,2.1642,2.1657,2.1644,2.165,2.1815,2.1816,2.1817,2.1785,0,0,0,0,0,0,2.1091,2.1116,2.1138,2.1223,2.125,2.1353,2.1366,2.1381,2.1419,2.1423,2.1504,2.1517,2.156,2.1632,2.1648,2.1666,2.1655,2.1814,2.1816,2.1817,2.1785,2.1785,2.1785,0,0,0,0,0,2.1083,2.1122,2.1139,2.1159,2.1279,2.1354,2.137,2.1419,2.142,2.1442,2.1491,2.1514,2.1653,2.1638,2.1657,2.1677,2.1813,2.1815,2.1817,2.1785,2.1785,2.1785,0,0,0,0,0,0,2.1037,2.1134,2.1154,2.1222,2.128,2.1363,2.1392,2.1418,2.1475,2.1476,2.1533,2.1551,2.1612,2.1651,2.1633,2.1731,2.1734,2.174,2.1704,2.1704,2.1704,2.1693,2.1661,0,0,0,0,0,2.1034,2.1089,2.1171,2.1223,2.1251,2.1316,2.1351,2.1384,2.1445,2.147,2.1523,2.1581,2.1637,2.1673,2.1729,2.1791,2.1809,2.1814,2.1813,2.1813,2.1817,2.1852,2.1854,2.1824,2.1824,2.1824,0,0,2.103,2.1091,2.1121,2.1215,2.1264,2.1317,2.1337,2.1392,2.1432,2.1478,2.1543,2.1585,2.1652,2.1716,2.1747,2.175,2.1829,2.1815,2.1815,2.1819,2.1854,2.1857,2.1859,2.1825,2.1825,2.1825,0,0,2.105,2.1102,2.1151,2.1199,2.1272,2.1316,2.1327,2.1407,2.1437,2.1504,2.1539,2.1586,2.1682,2.1729,2.1765,2.1801,2.1824,2.1818,2.1817,2.185,2.1853,2.1855,2.1867,2.1871,2.1822,2.1821,2.1821,0,2.1036,2.1119,2.1172,2.1227,2.1266,2.1311,2.136,2.1404,2.1491,2.1517,2.152,2.1641,2.169,2.1764,2.1773,2.1801,2.1815,2.1809,2.1848,2.1851,2.1854,2.1866,2.1871,2.182,2.182,2.182,2.1821,0,2.1097,2.1154,2.1184,2.1269,2.1312,2.1363,2.1423,2.146,2.1489,2.1531,2.1598,2.1658,2.1726,2.1747,2.1775,2.1825,2.1825,2.1837,2.1842,2.1855,2.1867,2.1872,2.1818,2.1819,2.1819,2.1819,0,0,2.1092,2.1205,2.1215,2.1254,2.1337,2.1382,2.1434,2.1503,2.1533,2.1591,2.1635,2.1715,2.1727,2.1768,2.1802,2.1831,2.1855,2.184,2.1843,2.184,2.1912,2.1902,2.1907,2.1871,2.1872,2.1873,2.1906,0,2.1123,2.122,2.1269,2.1345,2.1397,2.144,2.1485,2.1541,2.1581,2.1631,2.1675,2.1731,2.1743,2.1767,2.1798,2.1846,2.187,2.1844,2.1911,2.1913,2.1893,2.1914,2.1903,2.1932,2.1912,2.1913,2.1913,0,2.1171,2.123,2.1311,2.1388,2.1412,2.1452,2.1518,2.1566,2.1628,2.1656,2.1701,2.1735,2.179,2.179,2.1866,2.1847,2.1877,2.1905,2.1907,2.1915,2.1914,2.1921,2.1942,2.1946,2.1921,2.1921,2.192,0,2.1159,2.1258,2.1319,2.1351,2.1442,2.1469,2.1508,2.1571,2.1609,2.1666,2.1691,2.1753,2.1787,2.1833,2.1882,2.1878,2.1953,2.1957,2.1976,2.1974,2.1989,2.1988,2.2015,2.2009,2.2009,2.2009,2.2009,0,2.1187,2.1235,2.1315,2.1352,2.1406,2.1462,2.1513,2.1555,2.161,2.1656,2.1696,2.1737,2.1799,2.1848,2.1886,2.1942,2.1957,2.198,2.1989,2.1976,2.1973,2.1997,2.1996,2.201,2.201,2.201,2.201,0,2.1182,2.1238,2.1307,2.1388,2.141,2.1446,2.1514,2.1552,2.1594,2.1651,2.1667,2.1734,2.1793,2.1846,2.1924,2.195,2.2007,2.2019,2.1986,2.1991,2.2006,2.2004,2.2049,2.2058,2.2046,2.2046,2.2046,0,2.1196,2.1234,2.1319,2.1353,2.1392,2.1446,2.1485,2.154,2.1578,2.1653,2.168,2.1743,2.1796,2.1888,2.1942,2.2002,2.2015,2.2027,2.2024,2.201,2.2015,2.2012,2.2015,2.2026,2.2026,2.2026,2.2026,0,2.1216,2.1241,2.1297,2.1361,2.1407,2.146,2.1514,2.1539,2.1604,2.1645,2.1707,2.1748,2.1828,2.1889,2.1955,2.1993,2.202,2.2027,2.2034,2.2021,2.2,2.2011,2.1984,2.2025,2.2025,2.2025,2.2025,2.2025,2.1221,2.1256,2.1321,2.1381,2.1428,2.1478,2.1517,2.1564,2.1617,2.1688,2.1717,2.1779,2.184,2.1931,2.1969,2.2018,2.2023,2.2034,2.2036,2.2038,2.2035,2.1992,2.203,2.203,2.203,2.203,2.203,0,2.1242,2.1286,2.134,2.1415,2.1462,2.1485,2.1546,2.1583,2.1637,2.1693,2.1744,2.1814,2.1873,2.1932,2.1994,2.2021,2.2035,2.2036,2.2034,2.2042,2.2027,2.2015,2.2024,2.2024,2.2024,2.2024,2.2024,2.2024,2.1258,2.1319,2.1352,2.1435,2.1479,2.1542,2.1574,2.162,2.1664,2.1741,2.1791,2.1829,2.1886,2.1952,2.2007,2.2022,2.2043,2.204,2.2058,2.2043,2.2043,2.2043,2.2032,2.2044,2.2044,2.2069,2.207,2.207]}]]